This is the latest recevied weather packets stored in our database for station/object DL1DH-17. If no packets are shown the sender has not sent any weather packets the latest 10 day(s).
| Time | Temp. | Humidity | Pressure | Rain* | Wind** | Luminosity | Snow |
|---|---|---|---|---|---|---|---|
| 1778270978 | 10° C | 68% | 979.1 hPa | - | - | - | - |
| 1778270138 | 10.56° C | 67% | 979 hPa | - | - | - | - |
| 1778269298 | 10.56° C | 66% | 978.9 hPa | - | - | - | - |
| 1778268458 | 10.56° C | 65% | 978.7 hPa | - | - | - | - |
| 1778267618 | 11.11° C | 64% | 978.5 hPa | - | - | - | - |
| 1778266778 | 11.11° C | 61% | 978.3 hPa | - | - | - | - |
| 1778265938 | 11.67° C | 60% | 978.2 hPa | - | - | - | - |
| 1778265098 | 12.22° C | 57% | 978.1 hPa | - | - | - | - |
| 1778264258 | 12.78° C | 56% | 977.9 hPa | - | - | - | - |
| 1778263418 | 12.78° C | 55% | 977.8 hPa | - | - | - | - |
| 1778262577 | 13.33° C | 54% | 977.6 hPa | - | - | - | - |
| 1778261737 | 13.89° C | 53% | 977.7 hPa | - | - | - | - |
| 1778260897 | 13.89° C | 52% | 977.6 hPa | - | - | - | - |
| 1778260057 | 14.44° C | 52% | 977.6 hPa | - | - | - | - |
| 1778259217 | 15° C | 51% | 977.5 hPa | - | - | - | - |
| 1778258377 | 15° C | 51% | 977.5 hPa | - | - | - | - |
| 1778257537 | 14.44° C | 51% | 977.5 hPa | - | - | - | - |
| 1778256697 | 15° C | 49% | 977.4 hPa | - | - | - | - |
| 1778255857 | 15.56° C | 49% | 977.5 hPa | - | - | - | - |
| 1778255017 | 15.56° C | 49% | 977.6 hPa | - | - | - | - |
| 1778254177 | 15° C | 51% | 977.5 hPa | - | - | - | - |
| 1778253336 | 15° C | 50% | 977.6 hPa | - | - | - | - |
| 1778252495 | 15° C | 51% | 977.6 hPa | - | - | - | - |
| 1778251655 | 15° C | 51% | 977.6 hPa | - | - | - | - |
| 1778250815 | 15.56° C | 50% | 977.7 hPa | - | - | - | - |
* Rain since midnight (hover to see other rain measurements)
** Current wind speed in m/s (hover to see current wind gust speed)